Temp
63 65 65 65 52 47 43 51 61 58 59 65 70 65 61 62 60 54 68 70 72 73 74 73 73 74 74 74 74 74 74 74 74 74 74 74 74 74 74 74 74 75 76 76 76 76 76 75 74
67 71 65 57 46 40 45 57 58 61 66 67 67 68 62 61 67 64 65 71 74 73 74 72 73 73 73 73 74 74 74 74 74 74 74 74 74 74 74 74 74 75 76 76 76 76 75 74 73
69 73 59 51 42 43 45 58 61 64 67 65 62 66 65 63 69 68 69 72 73 72 73 73 72 72 73 73 73 73 73 73 73 74 74 74 74 74 74 73 73 74 75 76 76 75 74 72 72
67 63 59 49 47 52 59 59 63 65 66 68 64 58 64 68 69 72 71 72 72 71 72 70 71 72 72 73 73 73 73 72 73 73 74 74 74 73 73 72 73 74 74 75 74 74 72 71 71
63 56 47 45 50 61 61 62 63 63 63 65 64 56 58 65 70 71 69 72 70 70 71 70 69 71 72 73 73 72 72 72 72 72 73 73 73 73 72 71 72 72 73 73 73 72 72 71 70
57 54 45 45 55 58 60 62 61 61 64 63 61 59 57 65 66 67 69 69 70 69 70 70 72 71 71 72 71 71 71 71 71 71 72 72 72 71 71 71 71 71 71 71 71 70 71 71 70
53 50 48 50 56 55 60 62 58 60 63 63 65 55 57 62 65 67 66 66 67 67 66 66 69 70 69 69 69 69 70 70 70 70 70 70 70 70 71 71 71 71 71 71 70 70 70 70 69
59 55 46 49 56 54 61 62 64 65 65 70 66 54 52 61 65 66 65 64 63 63 65 65 66 67 67 68 68 68 69 69 69 70 69 69 69 69 70 69 70 70 71 71 71 70 70 69 69
63 53 49 51 54 55 61 59 62 68 66 63 63 61 62 64 65 64 63 62 61 63 64 65 65 66 65 66 68 68 69 69 69 69 68 66 65 66 67 67 69 70 70 70 70 69 68 67 66
58 52 54 63 59 56 59 59 63 62 61 57 58 61 62 64 63 61 61 60 60 60 62 65 65 65 66 70 66 65 69 66 66 66 65 64 64 64 66 67 68 69 69 69 68 68 67 65 61
58 56 62 65 62 59 57 56 61 60 57 60 57 57 58 61 63 61 61 62 61 63 63 65 66 66 66 67 63 62 62 62 63 64 64 64 65 63 61 60 61 60 64 63 63 62 61 61 60
57 66 65 65 61 58 56 60 61 58 61 68 64 61 61 60 61 62 61 61 62 62 64 65 67 66 64 65 63 63 63 63 63 64 65 63 61 60 62 60 60 60 59 58 58 58 59 59 60
61 65 66 64 63 61 66 62 61 57 65 67 64 64 61 61 62 64 64 64 63 62 64 65 68 65 65 64 63 64 63 63 63 63 63 64 62 61 60 58 59 58 58 58 57 57 57 57 58
66 66 63 64 64 64 63 59 62 60 66 63 63 62 63 63 63 63 63 61 63 65 65 68 68 66 66 64 64 63 63 63 62 61 62 62 60 58 59 57 57 57 57 57 56 55 54 53 55
66 61 61 62 58 62 64 58 58 63 65 65 65 64 65 65 65 62 63 63 65 65 69 67 67 66 64 64 65 62 63 63 61 60 61 61 60 58 57 56 56 56 56 56 54 53 53 52 54
60 61 50 59 62 65 62 53 62 65 63 61 64 65 65 65 65 65 66 66 67 69 69 67 69 65 64 62 61 61 60 60 59 57 57 59 58 58 56 55 55 55 54 53 52 52 51 50 49
53 47 51 55 64 64 59 53 61 64 63 60 61 62 64 65 67 67 68 69 69 69 68 64 65 63 60 60 60 59 58 58 57 56 56 57 58 57 56 55 54 54 53 52 53 50 50 47 47
49 51 50 52 58 59 57 55 58 60 63 61 59 59 65 65 66 70 69 69 68 65 68 65 64 60 59 59 58 57 57 56 56 55 56 58 58 58 56 55 54 53 52 51 50 49 48 47 46
56 54 52 54 61 58 58 56 58 60 60 58 59 59 63 65 69 70 69 69 66 65 64 63 60 58 60 58 56 55 55 54 55 55 57 58 58 58 55 54 53 52 51 50 50 48 47 45 45
57 55 52 57 62 59 55 55 56 58 61 63 62 61 62 63 66 67 68 67 65 64 63 63 62 60 60 60 57 57 55 55 56 56 56 58 57 56 55 53 52 52 50 49 49 47 45 44 44
56 51 52 53 57 56 55 52 53 60 61 62 65 66 66 65 64 64 65 64 65 63 62 62 61 60 61 60 59 57 57 55 54 53 53 55 57 57 56 54 52 51 50 49 47 46 45 43 43
50 59 59 58 51 44 52 40 48 56 59 62 62 62 63 66 66 65 64 63 64 61 63 63 62 61 61 61 60 58 59 56 54 53 54 54 56 57 57 55 52 50 49 48 47 48 45 43 41
55 59 57 56 51 47 47 43 47 55 55 59 60 62 64 65 66 65 63 66 65 61 61 61 62 63 65 62 62 60 57 56 53 53 53 53 54 55 55 52 50 49 47 47 48 48 44 43 42
63 57 54 50 48 39 47 45 44 49 60 63 62 62 62 63 65 66 62 65 62 61 61 61 63 65 65 62 61 60 58 54 53 52 53 52 51 50 51 51 49 49 47 47 45 43 43 42 41
58 50 36 34 33 34 50 46 49 56 60 62 61 60 60 62 61 59 59 61 60 60 60 61 64 63 62 60 60 58 57 56 56 55 51 49 48 49 49 50 50 49 49 46 45 44 42 41 39
51 49 37 33 30 36 48 41 49 61 64 65 61 61 60 59 62 61 61 60 61 61 61 62 62 60 59 59 58 58 57 54 51 53 53 52 51 51 51 50 51 49 48 46 43 43 42 40 39
53 47 53 40 36 31 41 49 57 60 60 58 56 59 56 56 60 61 61 60 60 59 59 60 60 60 57 56 55 56 55 55 53 52 53 52 51 52 50 50 49 49 48 46 44 42 40 39 39
57 58 45 41 33 31 40 43 44 52 56 56 54 56 57 58 58 58 59 59 59 60 58 58 60 59 58 57 56 55 54 54 53 53 52 52 51 51 51 50 49 49 47 44 42 41 41 40 38
51 49 49 48 40 33 29 38 52 55 57 56 56 58 57 58 58 59 59 60 60 59 58 57 61 60 59 57 52 52 51 51 54 53 52 51 50 51 50 49 48 48 44 44 42 41 42 40 39
53 51 50 34 39 37 31 38 55 56 57 57 58 59 58 60 60 60 60 60 59 60 59 58 59 57 56 55 54 52 54 55 54 53 52 51 51 51 48 47 47 46 45 43 42 40 40 39 38
MSLP
1013.33 1013.60 1013.77 1014.14 1015.60 1015.90 1015.20 1013.39 1011.82 1011.37 1010.93 1010.73 1010.39 1010.66 1011.24 1012.14 1012.69 1013.51 1013.06 1013.67 1014.06 1014.70 1015.07 1015.27 1015.63 1016.20 1016.68 1017.14 1017.64 1017.87 1018.27 1018.44 1018.59 1018.81 1019.17 1019.27 1019.58 1020.35 1020.29 1020.50 1020.69 1020.76 1020.40 1020.40 1020.49 1020.58 1020.45 1020.61 1020.47
1013.07 1013.47 1014.02 1014.68 1015.49 1015.81 1014.34 1012.53 1011.54 1011.02 1010.79 1010.98 1011.13 1011.28 1011.78 1012.49 1012.82 1013.40 1013.70 1014.11 1014.24 1014.75 1015.34 1015.76 1015.84 1016.15 1016.84 1017.46 1017.76 1018.24 1018.41 1018.72 1018.93 1019.34 1019.26 1019.61 1019.91 1020.49 1020.50 1020.79 1020.91 1020.95 1020.72 1020.59 1020.84 1020.67 1020.91 1020.88 1020.88
1013.06 1013.13 1014.48 1015.01 1015.21 1014.86 1013.73 1011.93 1011.32 1010.93 1010.53 1010.72 1011.15 1011.51 1012.28 1012.97 1013.01 1013.49 1013.96 1014.36 1014.53 1015.21 1015.71 1016.15 1016.11 1016.36 1017.16 1017.71 1018.08 1018.49 1018.67 1018.63 1019.16 1019.61 1019.62 1019.92 1020.35 1020.67 1020.73 1021.11 1021.13 1021.20 1021.24 1020.94 1021.09 1020.93 1020.99 1021.06 1021.41
1013.07 1013.85 1014.71 1014.68 1014.28 1013.75 1012.71 1011.70 1011.49 1011.01 1010.77 1010.81 1011.65 1012.70 1013.24 1013.79 1013.57 1013.59 1014.38 1014.51 1015.06 1015.60 1015.94 1016.49 1016.88 1016.40 1017.06 1018.10 1018.50 1018.82 1018.95 1018.85 1019.19 1019.63 1019.72 1020.33 1020.65 1020.83 1021.22 1021.30 1021.52 1021.57 1021.53 1021.35 1021.43 1021.64 1021.58 1021.19 1021.36
1013.22 1014.28 1014.74 1014.37 1014.14 1013.20 1012.43 1011.78 1011.68 1011.64 1011.25 1011.51 1011.93 1013.48 1014.12 1014.42 1014.17 1014.30 1014.86 1015.19 1015.31 1015.85 1016.21 1016.39 1017.58 1017.26 1017.04 1018.34 1018.81 1019.16 1019.37 1019.44 1019.24 1019.53 1019.86 1020.43 1020.66 1020.98 1021.18 1021.43 1021.63 1021.89 1021.66 1021.53 1021.64 1021.83 1021.88 1021.95 1021.97
1013.83 1014.45 1014.83 1013.91 1013.71 1013.25 1012.71 1012.43 1012.36 1012.22 1012.13 1012.31 1012.74 1013.55 1015.33 1015.42 1015.24 1015.50 1015.70 1015.84 1015.56 1016.14 1016.70 1017.22 1017.22 1017.67 1017.53 1018.32 1018.97 1019.32 1019.70 1019.54 1019.30 1019.67 1020.11 1020.41 1020.53 1020.90 1021.14 1021.52 1021.87 1022.08 1022.17 1022.05 1022.30 1022.25 1022.26 1022.37 1022.57
1013.87 1014.26 1014.20 1013.61 1013.27 1013.14 1012.53 1012.39 1012.46 1012.39 1012.07 1012.71 1012.97 1014.59 1016.10 1016.00 1015.95 1016.10 1016.41 1016.41 1015.91 1017.23 1017.78 1017.68 1018.21 1017.97 1018.49 1018.45 1019.23 1019.47 1019.56 1019.71 1019.76 1020.03 1020.17 1020.51 1020.74 1020.99 1021.35 1021.62 1021.80 1022.06 1022.34 1022.59 1022.50 1022.58 1022.56 1023.06 1023.05
1013.27 1013.74 1013.58 1013.12 1012.91 1012.83 1012.47 1012.60 1011.53 1010.97 1011.83 1011.84 1013.29 1014.74 1016.40 1016.62 1016.47 1016.52 1017.09 1017.98 1018.16 1018.31 1018.34 1018.95 1019.06 1018.78 1019.41 1019.73 1019.68 1019.70 1019.75 1020.09 1020.14 1020.20 1020.33 1020.60 1020.86 1021.06 1021.46 1021.84 1022.18 1022.36 1022.44 1022.71 1022.88 1022.83 1023.02 1023.23 1023.33
1012.44 1013.09 1012.59 1012.68 1012.35 1012.60 1012.17 1012.14 1011.84 1011.54 1011.93 1013.22 1013.49 1014.59 1015.86 1016.60 1016.81 1017.18 1017.39 1018.06 1018.02 1019.29 1019.48 1019.30 1019.62 1020.03 1020.38 1020.06 1019.88 1020.03 1020.15 1020.08 1020.19 1020.33 1020.62 1021.00 1021.23 1021.64 1021.84 1021.94 1022.23 1022.54 1022.86 1022.91 1022.89 1023.20 1023.46 1023.39 1023.57
1012.26 1012.45 1011.83 1011.67 1011.72 1012.02 1012.14 1012.76 1012.30 1012.47 1012.80 1014.48 1015.08 1016.03 1016.78 1016.93 1016.86 1017.43 1017.69 1018.20 1018.86 1019.19 1019.45 1019.09 1020.60 1020.11 1020.19 1020.00 1020.25 1020.27 1020.40 1020.40 1020.50 1020.88 1020.99 1021.15 1021.40 1021.71 1022.03 1022.23 1022.60 1022.90 1023.04 1023.16 1023.33 1023.40 1023.58 1023.71 1024.05
1011.77 1011.33 1010.97 1011.01 1011.05 1011.67 1012.23 1012.58 1012.65 1012.75 1013.12 1013.74 1014.68 1015.87 1016.97 1017.12 1017.13 1017.39 1017.91 1018.13 1018.70 1019.27 1019.60 1019.47 1019.95 1020.15 1020.16 1020.26 1020.50 1020.38 1020.50 1020.79 1020.88 1021.20 1021.23 1021.46 1021.95 1022.39 1022.56 1022.80 1023.18 1023.52 1023.63 1023.70 1023.83 1023.86 1023.99 1024.28 1024.40
1011.16 1010.23 1010.46 1010.52 1011.40 1012.01 1012.41 1012.16 1012.69 1012.69 1012.54 1012.77 1013.83 1015.01 1016.21 1016.56 1016.90 1017.10 1017.09 1017.81 1018.42 1018.80 1018.95 1019.46 1019.62 1020.05 1019.97 1020.32 1020.60 1020.52 1020.70 1020.90 1021.05 1021.33 1021.43 1021.78 1022.19 1022.61 1023.03 1022.73 1023.26 1023.76 1023.99 1024.19 1024.16 1024.29 1024.42 1024.31 1024.77
1010.52 1009.99 1009.90 1010.47 1011.38 1011.90 1011.56 1012.19 1012.63 1012.87 1012.49 1012.92 1014.31 1014.68 1015.88 1016.48 1017.42 1017.63 1017.50 1017.99 1018.59 1018.58 1019.48 1019.34 1019.34 1019.65 1019.89 1020.31 1020.63 1020.53 1020.55 1020.98 1021.50 1021.46 1021.52 1021.56 1021.81 1022.59 1022.97 1023.14 1023.52 1023.99 1024.31 1024.32 1024.39 1024.59 1024.46 1024.70 1024.78
1009.50 1009.49 1010.21 1010.21 1011.12 1011.38 1011.42 1011.95 1011.97 1013.08 1012.81 1013.45 1014.26 1014.55 1015.71 1016.22 1016.76 1017.36 1018.00 1018.16 1018.35 1018.94 1019.04 1019.09 1019.25 1019.49 1019.82 1019.82 1020.24 1020.46 1020.83 1021.38 1021.45 1021.61 1021.53 1021.61 1021.84 1022.54 1023.03 1023.66 1023.80 1024.10 1024.30 1024.27 1024.45 1024.49 1025.07 1025.35 1025.31
1009.62 1010.26 1010.63 1011.06 1011.63 1011.34 1011.04 1011.64 1012.10 1012.72 1012.98 1013.41 1013.91 1014.24 1015.18 1015.96 1016.44 1016.59 1017.33 1017.77 1017.82 1017.99 1018.36 1018.66 1018.92 1019.29 1019.67 1019.79 1020.06 1020.80 1021.28 1021.26 1021.51 1021.67 1021.64 1021.77 1022.31 1022.64 1023.02 1023.77 1024.17 1024.16 1024.10 1024.24 1024.43 1024.86 1025.30 1025.81 1025.66
1009.97 1010.54 1011.83 1011.62 1011.22 1010.61 1011.02 1011.52 1011.45 1012.10 1012.87 1013.44 1013.56 1014.11 1014.84 1015.47 1015.82 1016.37 1016.68 1017.06 1017.38 1017.61 1017.95 1018.42 1018.84 1019.20 1019.55 1020.02 1020.65 1021.18 1021.21 1021.09 1021.62 1021.90 1021.93 1021.89 1022.36 1022.40 1023.14 1023.47 1023.92 1024.13 1024.18 1024.39 1024.92 1025.22 1025.79 1026.15 1026.60
1010.72 1011.08 1011.14 1011.43 1010.53 1010.30 1010.70 1011.31 1011.22 1011.52 1012.55 1013.32 1013.60 1014.10 1014.50 1014.97 1015.55 1015.86 1016.36 1016.57 1016.83 1017.12 1017.45 1018.16 1018.70 1019.42 1019.84 1020.41 1020.71 1021.12 1021.15 1021.34 1022.02 1022.25 1022.37 1022.22 1022.39 1022.76 1023.10 1023.49 1024.05 1024.03 1024.45 1024.79 1024.98 1025.72 1025.89 1026.40 1026.52
1011.24 1011.01 1010.78 1010.91 1010.85 1010.77 1010.60 1010.96 1010.90 1011.58 1012.17 1012.90 1013.26 1013.72 1013.98 1014.22 1014.55 1015.09 1015.71 1016.32 1016.56 1016.93 1017.29 1018.04 1018.72 1019.43 1020.01 1020.40 1020.78 1021.11 1021.28 1021.91 1022.08 1022.39 1022.43 1022.31 1022.71 1022.87 1023.14 1023.61 1024.11 1024.44 1024.83 1025.33 1025.40 1025.80 1025.98 1026.35 1026.49
1011.10 1010.74 1011.06 1010.78 1010.37 1010.54 1010.57 1010.71 1010.89 1011.30 1012.18 1012.76 1012.90 1013.22 1013.36 1013.60 1013.93 1014.61 1015.29 1015.98 1016.55 1016.89 1017.42 1017.95 1018.75 1019.45 1019.77 1020.35 1020.84 1021.35 1021.73 1021.90 1022.11 1022.28 1022.16 1022.68 1022.68 1022.70 1023.26 1024.07 1024.59 1024.80 1025.06 1025.26 1025.22 1025.72 1026.16 1026.53 1026.60
1010.98 1011.27 1010.90 1010.30 1009.69 1010.31 1010.70 1010.91 1011.07 1011.31 1011.41 1012.00 1012.27 1012.75 1013.03 1013.47 1014.07 1014.67 1015.34 1015.96 1016.47 1016.80 1017.53 1017.97 1018.57 1019.08 1019.36 1019.69 1020.24 1020.65 1021.22 1021.71 1021.88 1022.08 1022.34 1022.38 1022.49 1022.95 1023.75 1024.19 1024.45 1024.66 1024.96 1025.10 1025.37 1025.78 1026.36 1026.60 1026.62
1010.92 1011.05 1010.83 1010.52 1010.47 1010.38 1010.71 1011.13 1011.01 1010.91 1010.88 1011.58 1011.67 1011.65 1012.09 1012.34 1013.31 1014.19 1014.98 1015.57 1016.05 1016.82 1017.28 1017.59 1018.15 1018.71 1019.10 1019.62 1020.06 1020.40 1020.89 1021.45 1021.99 1022.31 1022.59 1022.74 1022.83 1023.25 1023.45 1023.85 1024.17 1024.34 1024.54 1025.04 1025.42 1025.72 1026.07 1026.54 1026.60
1011.09 1010.66 1010.55 1010.43 1010.69 1010.95 1010.89 1011.47 1010.92 1010.38 1010.54 1011.00 1011.56 1011.84 1011.76 1012.17 1012.91 1013.49 1014.37 1015.09 1015.50 1016.28 1016.84 1017.27 1017.89 1018.50 1018.99 1019.38 1019.57 1020.01 1020.69 1021.50 1021.72 1022.16 1022.53 1022.75 1022.70 1022.88 1022.96 1023.26 1023.67 1024.19 1024.67 1025.23 1025.41 1025.55 1025.92 1026.29 1026.61
1010.54 1010.29 1010.64 1010.76 1011.28 1011.41 1011.24 1011.36 1010.53 1010.24 1010.26 1010.18 1010.55 1010.88 1011.14 1011.53 1012.02 1012.83 1013.32 1013.72 1014.59 1015.56 1016.17 1016.96 1017.62 1018.20 1018.46 1018.92 1019.29 1019.95 1020.61 1020.95 1021.35 1022.02 1022.44 1022.60 1022.60 1022.68 1022.94 1023.45 1024.14 1024.66 1025.04 1025.19 1025.36 1025.45 1025.72 1026.00 1026.34
1010.36 1010.59 1011.19 1011.83 1012.28 1012.43 1012.02 1011.80 1010.69 1010.11 1009.08 1009.00 1009.13 1010.21 1010.89 1011.53 1012.05 1012.45 1013.30 1013.94 1014.77 1015.62 1016.09 1016.47 1017.18 1017.60 1018.32 1018.76 1018.95 1019.57 1020.02 1020.70 1021.36 1021.96 1022.38 1022.57 1022.99 1023.48 1023.69 1024.00 1024.37 1024.89 1024.84 1025.36 1025.64 1025.61 1025.50 1025.55 1025.95
1010.21 1011.26 1012.50 1013.29 1013.50 1013.19 1012.24 1011.69 1010.16 1009.12 1008.70 1008.52 1009.11 1009.72 1010.39 1011.33 1012.10 1012.62 1013.37 1014.09 1014.85 1015.19 1015.87 1016.33 1016.84 1017.36 1017.70 1018.25 1018.61 1019.15 1019.56 1020.04 1020.64 1021.37 1022.08 1022.70 1023.49 1024.05 1024.58 1024.66 1024.77 1024.79 1024.63 1025.04 1025.28 1025.37 1025.66 1025.53 1025.83
1010.89 1011.50 1012.78 1013.94 1014.65 1013.95 1012.69 1011.41 1009.72 1008.34 1007.67 1008.02 1008.56 1009.34 1010.22 1011.02 1011.76 1012.46 1013.08 1013.78 1014.21 1014.75 1015.52 1016.08 1016.54 1016.94 1017.35 1017.83 1018.31 1018.87 1019.54 1020.12 1020.76 1021.25 1021.96 1022.80 1023.52 1024.03 1023.95 1024.51 1024.89 1025.50 1025.61 1024.93 1025.07 1025.28 1025.61 1025.86 1025.78
1010.46 1011.34 1011.60 1013.55 1015.03 1014.75 1013.19 1011.09 1009.41 1008.60 1008.21 1008.71 1009.33 1009.64 1010.45 1010.98 1011.73 1012.28 1013.00 1013.46 1014.14 1014.68 1015.20 1015.67 1016.07 1016.69 1017.24 1017.92 1018.48 1019.09 1019.76 1020.30 1020.96 1021.76 1022.42 1023.00 1023.64 1023.86 1024.72 1024.78 1024.44 1025.10 1025.11 1024.93 1024.75 1025.27 1025.50 1025.53 1025.71
1010.22 1010.73 1011.80 1013.38 1014.86 1015.10 1013.66 1011.91 1010.35 1009.47 1009.10 1009.30 1009.80 1010.26 1010.77 1011.39 1012.00 1012.40 1012.90 1013.36 1013.81 1014.12 1014.76 1015.26 1015.48 1016.29 1017.20 1018.28 1018.69 1019.25 1020.02 1020.63 1021.31 1022.01 1022.60 1023.07 1023.55 1023.31 1024.01 1024.19 1024.76 1024.68 1024.60 1024.77 1025.05 1025.26 1025.23 1025.30 1025.59
1010.26 1010.56 1011.54 1012.93 1014.21 1014.87 1014.31 1012.48 1010.22 1009.63 1009.28 1009.47 1009.77 1010.02 1010.49 1011.14 1011.55 1012.00 1012.45 1012.87 1013.32 1013.79 1014.39 1014.92 1015.32 1016.24 1017.04 1017.79 1018.56 1019.33 1020.15 1020.70 1021.16 1021.73 1022.26 1022.66 1022.84 1023.27 1023.63 1024.06 1024.12 1024.41 1024.45 1024.59 1024.90 1024.96 1025.04 1025.25 1025.44
1009.97 1010.65 1011.31 1013.11 1014.27 1014.63 1014.08 1012.18 1009.97 1009.39 1009.22 1009.38 1009.72 1010.09 1010.29 1010.42 1010.81 1011.21 1011.67 1012.26 1012.97 1013.45 1013.97 1014.36 1014.79 1015.54 1016.46 1017.06 1018.02 1018.89 1019.43 1019.93 1020.62 1021.25 1021.84 1022.15 1022.59 1022.74 1023.09 1023.59 1023.96 1024.09 1024.32 1024.46 1024.71 1024.93 1025.08 1025.18 1025.34
Wind_Speed
3 4 1 4 4 5 4 8 3 2 2 2 3 11 9 6 1 3 5 7 15 15 15 18 22 22 21 21 20 20 21 22 22 22 21 22 21 19 19 18 18 18 21 21 21 20 21 22 20
2 4 4 2 5 2 6 6 4 4 5 7 3 4 5 4 3 7 6 13 17 15 13 15 22 23 21 20 20 20 21 22 21 20 21 21 21 20 20 18 17 17 20 21 20 21 21 21 22
2 1 4 4 4 7 5 4 7 3 5 3 3 6 4 4 9 7 12 13 15 13 13 15 21 23 21 20 20 20 20 22 21 19 21 22 21 21 20 17 17 17 19 20 20 22 21 19 22
2 5 4 4 11 4 7 1 3 4 1 6 6 7 5 4 4 9 15 15 14 12 14 15 17 23 23 20 20 20 19 20 21 20 21 21 21 20 19 16 15 16 17 18 19 19 19 19 21
4 3 1 4 3 5 6 6 2 2 2 5 1 3 4 6 9 16 14 11 13 12 13 15 15 20 24 20 19 18 18 19 21 21 20 19 20 19 17 15 14 13 15 16 16 14 17 18 19
4 3 2 4 3 2 1 5 1 4 7 4 6 5 5 7 9 8 6 7 12 13 13 13 21 20 21 19 18 17 17 18 20 20 20 19 18 17 16 14 12 11 11 13 12 12 15 18 17
5 4 4 2 3 3 4 3 2 1 5 6 3 5 2 11 9 13 13 13 11 11 12 11 10 14 13 15 14 15 16 17 18 18 18 17 16 15 14 13 12 11 10 10 10 11 12 12 15
4 4 4 3 2 4 2 4 10 13 6 10 4 5 4 3 11 15 18 17 18 17 9 11 8 8 5 6 11 13 14 14 16 16 16 14 13 14 13 12 10 9 9 10 11 12 11 11 10
3 0 6 3 1 4 4 4 3 4 8 6 5 5 14 15 15 14 14 14 18 12 9 8 7 4 4 4 7 11 14 14 13 12 13 9 5 6 8 9 10 9 8 10 11 11 11 10 9
4 3 3 7 6 7 7 1 3 3 8 6 15 18 13 15 16 14 11 12 16 15 12 9 9 7 8 7 6 5 7 4 5 5 5 4 5 5 5 6 9 8 8 10 10 11 12 9 5
3 7 4 4 5 6 7 2 2 2 4 8 16 18 12 16 15 16 15 15 18 14 10 10 9 8 6 6 4 2 3 3 3 5 4 4 3 3 2 3 3 4 6 4 5 5 5 6 5
3 9 2 4 6 5 5 5 2 3 3 9 16 18 18 18 18 19 19 17 15 13 8 11 11 9 6 5 4 3 3 2 3 3 5 4 3 4 3 3 4 4 3 5 5 4 5 7 5
6 7 1 11 8 5 6 6 5 3 9 18 18 21 19 17 16 12 12 12 10 14 12 7 12 8 7 6 3 3 4 3 4 4 5 5 5 4 4 4 4 4 3 3 4 4 5 6 6
6 7 11 9 7 2 6 2 9 4 13 17 16 18 16 17 19 15 12 12 12 12 14 11 14 8 7 6 6 4 4 5 4 3 5 6 5 6 6 4 4 4 4 4 4 5 5 5 5
4 6 8 7 3 5 5 4 5 6 6 16 15 16 14 16 18 18 14 13 15 14 12 13 10 8 7 7 6 4 5 5 4 4 5 7 6 6 7 5 4 4 4 6 5 6 5 5 4
5 8 5 8 9 2 2 5 3 10 8 7 10 12 14 17 20 16 17 16 16 14 14 10 9 9 9 7 6 5 4 4 4 4 3 6 6 7 6 5 4 3 4 5 4 3 4 5 4
5 3 5 3 6 8 5 5 5 6 11 7 8 10 14 17 18 17 18 18 17 15 13 9 11 11 9 8 6 5 6 5 4 4 3 6 6 6 5 5 4 5 5 4 3 3 3 2 1
4 3 2 4 5 4 4 5 2 7 14 12 10 8 15 16 20 20 20 18 15 12 14 11 10 10 9 6 5 3 4 3 4 4 4 5 4 6 6 5 5 5 4 3 3 3 2 2 2
4 1 4 7 8 7 9 7 9 10 9 9 10 10 14 18 17 18 18 17 14 12 13 14 13 10 10 6 4 3 4 2 2 3 5 6 5 6 6 4 5 4 5 4 4 3 2 1 1
3 7 10 9 6 7 6 7 6 9 11 17 15 13 14 12 15 15 16 15 16 14 13 13 12 12 9 6 3 4 4 3 2 3 4 4 6 6 6 7 5 6 5 5 4 3 1 1 1
6 3 8 9 2 1 6 6 4 5 5 7 12 18 16 19 20 16 17 17 15 14 15 14 14 12 9 6 4 3 4 4 3 1 2 4 7 7 8 7 6 6 4 4 2 2 3 2 2
6 11 16 6 5 2 3 5 4 6 8 11 9 10 14 14 16 17 18 17 17 14 13 14 13 12 9 8 6 7 7 7 4 4 4 5 7 7 7 6 5 5 4 4 2 3 2 3 2
8 1 6 3 3 3 3 4 7 5 6 10 13 15 15 17 19 18 20 23 20 15 14 12 12 12 12 9 9 10 7 5 3 3 7 6 5 4 6 6 6 6 4 4 4 3 3 1 2
4 4 6 5 2 1 1 2 5 5 16 13 6 12 11 12 14 15 9 14 13 11 12 12 13 13 11 12 10 12 12 8 6 5 6 4 4 4 6 7 6 4 6 4 3 2 3 1 2
3 5 3 6 5 6 5 4 10 6 8 10 10 9 11 11 11 9 12 14 13 16 15 13 16 13 11 10 9 9 10 10 12 9 5 6 4 3 3 3 4 3 4 4 3 3 4 3 1
1 5 6 4 3 5 3 5 7 8 9 7 1 7 8 11 13 13 14 13 15 15 14 13 13 8 7 7 8 7 7 5 4 5 6 5 4 3 6 6 5 3 1 3 4 3 3 4 3
2 4 5 7 3 4 4 6 5 6 6 5 5 6 7 8 10 14 11 11 12 12 12 12 10 7 8 7 5 8 8 9 8 7 6 5 6 7 5 4 6 3 2 4 5 4 2 3 1
7 3 2 3 3 3 5 4 5 1 3 2 4 7 7 7 8 7 9 11 8 9 8 9 10 10 10 9 9 9 8 8 8 7 7 7 7 7 6 6 2 2 2 4 3 2 1 3 1
1 2 1 4 5 5 1 7 6 8 8 8 8 8 10 10 12 12 9 9 10 8 9 8 11 13 13 12 9 11 8 8 9 7 6 7 7 6 6 6 5 2 1 4 3 2 2 3 2
1 4 5 6 4 1 5 7 4 8 8 8 9 7 7 10 12 13 14 14 13 13 11 12 13 13 11 12 12 12 12 11 8 7 7 6 6 6 7 6 4 1 1 4 3 3 3 4 3
Wind_Direction
167 176 143 50 59 67 253 257 247 315 109 293 51 102 103 51 336 196 86 135 132 142 135 133 130 127 124 123 122 117 115 111 110 108 105 104 102 99 94 92 88 84 81 74 67 60 57 54 42
171 158 44 90 92 79 267 251 199 231 164 179 81 106 54 79 80 109 88 136 143 135 134 134 131 125 124 124 121 121 118 113 108 108 108 106 105 103 96 92 89 83 80 74 66 61 55 53 46
221 143 98 128 138 204 228 238 180 235 185 165 92 53 78 55 113 141 121 130 134 132 133 138 131 126 123 124 122 121 120 117 112 112 110 108 107 103 98 92 88 85 80 75 64 56 50 47 59
102 18 15 107 239 277 243 109 238 157 55 64 104 63 48 3 330 135 138 132 134 133 136 126 128 125 120 121 123 123 120 119 119 116 113 112 108 103 97 92 89 87 85 78 67 54 47 41 50
41 75 33 234 45 299 0 38 313 115 20 43 15 114 63 30 63 115 135 136 135 132 135 132 129 117 117 122 123 123 125 124 121 119 115 117 114 110 107 102 98 96 92 86 75 59 55 49 43
22 95 66 255 125 353 14 346 214 350 20 352 52 93 61 45 64 82 94 123 121 126 124 127 122 118 115 125 128 131 132 129 124 123 126 124 122 121 114 109 104 97 90 81 72 59 55 54 49
141 90 244 289 241 195 257 357 51 16 59 1 114 67 80 55 77 89 67 96 88 94 110 90 102 98 116 122 134 138 132 129 125 132 131 131 128 123 119 118 114 105 95 92 83 70 64 59 53
133 113 281 261 311 236 230 276 165 136 202 150 135 136 152 144 96 103 100 94 86 81 65 88 96 69 86 140 142 134 133 137 142 139 135 137 134 127 124 121 118 114 106 97 84 71 71 72 58
135 347 250 248 174 205 268 165 283 356 78 39 24 88 125 124 113 105 111 114 108 117 129 111 125 167 157 146 141 143 149 154 141 137 134 124 121 122 127 136 131 129 119 92 79 73 79 74 63
115 203 251 202 159 195 170 257 330 47 98 67 87 101 115 122 120 116 112 105 122 136 157 151 187 167 169 162 164 168 152 139 131 130 141 119 124 126 129 141 136 140 89 73 74 78 62 52 51
206 229 214 232 191 100 159 129 293 66 69 184 148 138 134 130 125 128 114 138 145 168 171 180 178 180 177 165 174 167 124 116 128 146 131 114 106 75 84 88 68 58 68 69 68 62 59 67 60
229 257 194 161 118 138 168 155 77 157 197 159 136 139 137 144 155 149 138 163 157 164 184 178 173 188 179 161 182 160 130 134 142 138 154 146 125 133 148 118 106 106 94 92 80 75 75 68 62
199 272 83 116 133 185 127 76 125 44 99 114 134 136 149 146 149 167 165 153 159 164 205 207 176 192 173 164 175 145 143 144 108 95 109 132 132 142 114 98 102 102 97 110 98 86 68 56 42
295 250 119 115 166 126 112 160 124 244 135 130 144 142 162 160 167 177 174 165 170 184 198 195 189 179 166 154 153 161 114 115 123 135 118 103 105 115 113 104 107 115 141 101 91 80 67 55 50
259 81 28 100 268 149 140 26 107 148 154 148 156 153 172 161 168 176 179 177 183 191 193 182 175 157 145 143 143 107 124 136 125 101 110 112 118 122 123 133 138 141 117 100 79 66 63 55 37
41 101 122 247 211 210 67 263 243 164 145 175 154 158 160 168 177 178 180 181 185 182 171 157 151 144 142 123 120 127 133 107 104 110 116 116 127 127 131 123 117 121 96 88 84 92 70 60 53
12 171 158 145 247 173 180 199 208 180 154 188 173 161 168 171 179 178 186 184 182 176 161 142 143 150 126 125 125 127 116 99 114 115 123 130 127 132 120 112 111 100 95 97 98 64 105 105 51
295 318 23 139 238 286 174 206 182 152 161 190 182 177 175 176 180 179 174 180 175 170 161 145 143 136 127 127 114 89 94 123 140 144 152 137 138 129 118 104 94 107 100 94 92 111 71 135 171
284 278 353 265 212 164 204 200 202 170 172 193 194 179 170 176 177 175 172 174 171 170 156 157 149 151 143 142 131 121 150 146 130 167 154 171 142 122 105 106 114 121 110 122 123 107 92 24 29
350 20 295 298 239 160 205 225 239 176 190 195 191 181 175 164 164 173 173 172 174 165 168 159 162 163 164 155 146 150 146 170 158 155 171 166 126 124 139 142 143 140 129 115 105 114 109 272 232
289 196 268 239 158 206 132 320 203 231 135 176 198 185 178 173 170 168 174 175 172 170 174 168 172 170 168 166 147 92 72 63 73 114 184 194 158 166 150 155 153 148 126 133 145 142 155 195 292
217 237 255 293 44 245 134 230 278 195 201 183 196 197 182 181 176 165 171 173 176 175 175 174 170 170 179 181 150 156 168 166 191 170 176 171 166 165 160 145 120 109 98 101 110 119 147 150 230
248 292 261 331 300 92 303 96 261 166 196 204 203 196 191 181 174 169 175 179 182 165 171 171 166 178 192 189 172 174 183 176 147 148 163 169 175 126 124 119 110 111 112 111 99 65 44 133 164
320 355 42 37 40 67 353 152 276 203 211 209 179 186 194 187 186 183 159 165 164 163 167 168 177 184 197 196 178 183 183 168 151 165 175 162 97 90 92 110 115 114 102 79 79 92 82 67 249
112 67 332 357 6 219 305 101 240 233 252 216 189 176 175 180 177 157 150 161 164 171 177 178 185 195 187 188 178 183 177 172 176 173 153 124 107 101 93 69 75 79 110 111 83 46 13 12 315
260 164 157 217 222 272 260 224 259 274 223 215 118 146 147 167 169 169 160 165 179 175 179 180 187 185 163 159 164 153 146 124 113 115 119 116 117 94 104 93 104 102 102 103 66 61 63 62 53
343 193 201 105 13 43 263 291 337 339 36 57 113 111 145 141 167 172 162 175 174 173 184 177 174 160 141 132 120 111 113 118 116 104 104 110 114 132 135 131 102 74 23 41 93 99 76 49 6
176 231 88 8 150 243 291 305 238 175 278 8 160 161 159 148 155 161 166 167 176 175 168 170 157 150 146 142 131 127 128 122 124 129 139 136 132 118 117 82 117 174 61 108 105 102 64 79 42
37 273 140 125 138 167 179 271 227 205 202 202 215 190 173 176 170 174 176 174 171 158 150 151 148 152 153 148 144 140 145 147 135 133 137 136 130 126 130 195 174 203 72 164 158 172 132 127 135
147 261 150 122 238 104 145 270 264 218 205 189 216 216 208 190 179 177 174 169 168 171 165 167 169 159 164 155 152 149 146 139 135 133 139 135 160 178 180 165 176 167 190 192 187 185 168 180 194